TimeEST,TemperatureF,Dew PointF,Humidity,Sea Level PressureIn,VisibilityMPH,Wind Direction,Wind SpeedMPH,Gust SpeedMPH,PrecipitationIn,Events,Conditions,WindDirDegrees,DateUTC
12:53 AM,32.0,28.0,85,30.22,10.0,ENE,3.5,-,N/A,,Clear,60,2012-11-20 05:53:00
1:53 AM,27.0,25.0,92,30.23,10.0,Calm,Calm,-,N/A,,Clear,0,2012-11-20 06:53:00
2:53 AM,27.0,25.0,92,30.22,10.0,Calm,Calm,-,N/A,,Clear,0,2012-11-20 07:53:00
3:53 AM,27.0,24.1,89,30.20,10.0,NE,3.5,-,N/A,,Clear,40,2012-11-20 08:53:00
4:53 AM,26.1,24.1,92,30.21,10.0,Calm,Calm,-,N/A,,Clear,0,2012-11-20 09:53:00
5:53 AM,27.0,24.1,89,30.21,10.0,NNW,4.6,-,N/A,,Clear,340,2012-11-20 10:53:00
6:53 AM,27.0,23.0,85,30.21,10.0,Calm,Calm,-,N/A,,Clear,0,2012-11-20 11:53:00
7:53 AM,28.9,26.1,89,30.19,10.0,North,3.5,-,N/A,,Clear,360,2012-11-20 12:53:00
8:53 AM,34.0,30.9,89,30.20,10.0,Calm,Calm,-,N/A,,Clear,0,2012-11-20 13:53:00
9:53 AM,39.0,28.0,65,30.21,10.0,West,3.5,-,N/A,,Clear,260,2012-11-20 14:53:00
10:53 AM,46.0,26.1,46,30.18,10.0,Calm,Calm,-,N/A,,Clear,0,2012-11-20 15:53:00
11:53 AM,46.9,26.1,44,30.15,10.0,SE,4.6,-,N/A,,Clear,130,2012-11-20 16:53:00
12:53 PM,46.9,24.1,41,30.14,10.0,SE,4.6,-,N/A,,Clear,130,2012-11-20 17:53:00
1:53 PM,46.0,25.0,44,30.13,10.0,SE,4.6,-,N/A,,Clear,130,2012-11-20 18:53:00
2:53 PM,46.0,24.1,42,30.13,10.0,SE,4.6,-,N/A,,Clear,140,2012-11-20 19:53:00
3:53 PM,44.1,26.1,49,30.13,10.0,ESE,4.6,-,N/A,,Clear,110,2012-11-20 20:53:00
4:53 PM,41.0,26.1,55,30.15,10.0,Calm,Calm,-,N/A,,Clear,0,2012-11-20 21:53:00
5:53 PM,36.0,26.1,67,30.16,10.0,Calm,Calm,-,N/A,,Clear,0,2012-11-20 22:53:00
6:53 PM,35.1,27.0,72,30.17,10.0,Calm,Calm,-,N/A,,Clear,0,2012-11-20 23:53:00
7:53 PM,34.0,26.1,73,30.17,10.0,Calm,Calm,-,N/A,,Clear,0,2012-11-21 00:53:00
8:53 PM,30.9,25.0,79,30.16,10.0,Calm,Calm,-,N/A,,Clear,0,2012-11-21 01:53:00
9:53 PM,30.0,25.0,82,30.16,10.0,Calm,Calm,-,N/A,,Clear,0,2012-11-21 02:53:00
10:53 PM,32.0,23.0,69,30.15,10.0,East,3.5,-,N/A,,Clear,80,2012-11-21 03:53:00
11:53 PM,32.0,24.1,73,30.15,10.0,NE,3.5,-,N/A,,Clear,50,2012-11-21 04:53:00